[[{"header":{"parameterUnit":"m.s-1","parameterCategory":1,"la1":30.2991,"la2":30.254,"lo1":-89.0895,"lo2":-89.0444,"dy":0.0017,"dx":0.0017,"nx":28,"ny":28,"refTime":"2025-07-12T09:00:00:Z","depth":0,"parameterNumber":2,"parameterNumberName":"U-component_of_WINDS"},"data":[0,0,0,0,0,0,0,0,0,0,0,0,0,0,0,0,0,0,0,0,0,0,0,0,0,0,0,0,0,0,0,0,0,0,0,0,0,0,0,0,0,0,0,0,0,0,0,0,0,0,0,0,0,0,0,0,0,0,1.6154,1.6154,0,1.6162,1.6162,1.6162,1.6083,1.6081,1.6079,1.6077,1.6086,1.6088,1.609,0,0,0,0,0,0,0,0,0,0,0,0,0,1.607,1.6072,1.6154,1.6154,1.6154,1.6162,1.6162,1.6162,1.6084,1.6081,1.6078,1.6076,1.6085,1.6088,1.609,0,0,0,0,0,0,0,0,0,0,0,0,0,1.6095,1.6073,1.6154,1.6116,1.6112,1.6162,1.6162,1.6162,1.6084,1.6081,1.6078,1.6075,1.6084,1.6087,1.6091,1.6177,0,0,1.6101,1.6103,0,0,0,0,0,0,0,0,1.6094,1.6098,1.6121,1.6118,1.6115,1.6118,1.6136,1.6167,1.6085,1.6095,1.6077,1.6073,1.6099,1.6101,1.611,1.6178,1.6178,1.6101,1.6104,1.6105,1.6106,0,0,0,0,0,0,0,1.6092,1.6098,1.6157,1.6122,1.6118,1.6098,1.6098,1.6141,1.6115,1.6094,1.6088,1.609,1.6097,1.6107,1.611,1.6178,1.6101,1.6104,1.6107,1.6108,1.6315,1.6318,0,0,0,0,0,0,1.6096,1.6097,1.6157,1.6157,1.6096,1.6102,1.6102,1.612,1.6115,1.6111,1.6093,1.6086,1.6103,1.6106,1.611,1.6209,1.6105,1.6108,1.611,1.6312,1.6316,1.632,0,0,0,0,0,0,1.6094,1.6102,1.6156,1.6125,1.6131,1.6107,1.6128,1.6122,1.6132,1.6114,1.6109,1.6108,1.61,1.6105,1.616,1.6208,1.611,1.6113,1.6308,1.6313,1.6318,1.6409,0,0,0,0,0,0,1.6092,1.6102,1.6134,1.6127,1.6133,1.6208,1.6131,1.6125,1.6138,1.613,1.6127,1.6123,1.6098,1.6156,1.6164,1.6211,1.6115,1.6303,1.631,1.6316,1.6402,1.6417,1.643,0,0,0,0,0,1.6089,1.616,1.6136,1.6144,1.6173,1.621,1.6214,1.6183,1.6142,1.6175,1.6163,1.6123,1.6202,1.6162,1.6171,1.6219,1.63,1.6308,1.6316,1.6395,1.6414,1.6429,0,0,0,0,0,0,1.6175,1.6159,1.6132,1.6203,1.6208,1.6197,1.6237,1.6204,1.6222,1.6213,1.6175,1.6175,1.6237,1.6234,1.619,1.6302,1.6244,1.6254,1.6301,1.6319,1.6332,1.6331,1.6118,0,0,0,0,0,1.6202,1.6233,1.6218,1.6281,1.6286,1.6261,1.6276,1.6252,1.6257,1.6259,1.6251,1.6257,1.6283,1.6301,1.6324,1.6401,1.6399,1.6439,1.6453,1.6464,1.6473,1.6512,1.6529,1.6345,1.6345,1.6345,0,0,1.6258,1.6253,1.6275,1.6298,1.63,1.6333,1.6264,1.6302,1.6326,1.6265,1.6316,1.6311,1.6315,1.6382,1.6411,1.6381,1.6523,1.6474,1.6484,1.6486,1.6522,1.6539,1.6555,1.6351,1.635,1.6349,0,0,1.6377,1.6377,1.6429,1.6432,1.6435,1.6418,1.6431,1.6424,1.6418,1.6469,1.6423,1.6452,1.6498,1.6502,1.651,1.663,1.6593,1.6638,1.6711,1.675,1.6764,1.6777,1.6818,1.6833,1.6647,1.6648,1.6648,0,1.6446,1.6494,1.646,1.6501,1.6512,1.6458,1.651,1.6514,1.6525,1.6534,1.6501,1.6556,1.6555,1.6621,1.665,1.6659,1.6672,1.6638,1.6765,1.6777,1.6788,1.6827,1.6843,1.6653,1.6652,1.6652,1.6651,0,1.6579,1.6613,1.6654,1.6665,1.6681,1.6728,1.67,1.672,1.6695,1.6682,1.6734,1.6731,1.6751,1.6766,1.6742,1.6828,1.6809,1.6771,1.6712,1.6812,1.6848,1.6862,1.6661,1.6659,1.6657,1.6656,0,0,1.6751,1.6742,1.6758,1.6761,1.676,1.6786,1.683,1.6849,1.6867,1.6876,1.6911,1.6951,1.6915,1.6925,1.6901,1.6935,1.7028,1.6892,1.6891,1.6916,1.7121,1.7149,1.7167,1.7004,1.7007,1.7009,1.712,0,1.6866,1.6939,1.691,1.6986,1.7016,1.6964,1.7002,1.7006,1.6995,1.7018,1.7006,1.7034,1.6985,1.699,1.7022,1.701,1.7068,1.7002,1.7036,1.7037,1.7035,1.7186,1.7215,1.732,1.7134,1.7137,1.7138,0,1.7009,1.7023,1.7102,1.7094,1.7106,1.7141,1.7155,1.7179,1.7182,1.7171,1.7181,1.715,1.7191,1.7133,1.719,1.7145,1.7157,1.7154,1.7157,1.7158,1.7093,1.7189,1.7353,1.7369,1.716,1.7159,1.7157,0,1.7125,1.7164,1.7216,1.7221,1.7214,1.7239,1.7237,1.7236,1.725,1.7263,1.7271,1.729,1.73,1.7314,1.7288,1.7248,1.7348,1.7288,1.734,1.734,1.7362,1.7361,1.7529,1.7373,1.7372,1.7372,1.7372,0,1.7255,1.7305,1.7268,1.7299,1.7354,1.7319,1.7374,1.7366,1.7366,1.7395,1.7352,1.7381,1.7345,1.737,1.735,1.7399,1.7404,1.7396,1.739,1.7399,1.74,1.7405,1.7397,1.7376,1.7375,1.7375,1.7374,0,1.7394,1.7371,1.7423,1.7412,1.741,1.7451,1.7441,1.7469,1.7455,1.7492,1.7499,1.7476,1.7503,1.7479,1.7505,1.7491,1.7556,1.754,1.7555,1.755,1.7602,1.7597,1.7779,1.78,1.7632,1.7634,1.7635,0,1.7478,1.7515,1.7507,1.7523,1.7524,1.7551,1.7563,1.7531,1.7546,1.7551,1.7579,1.7602,1.7619,1.7664,1.765,1.767,1.7653,1.7715,1.7655,1.7663,1.7652,1.7649,1.7652,1.7727,1.7729,1.7731,1.7732,0,1.7629,1.7615,1.7635,1.7651,1.7668,1.7679,1.7687,1.7703,1.7669,1.7688,1.7715,1.7728,1.7754,1.7777,1.7792,1.7789,1.7755,1.7751,1.7764,1.7773,1.7779,1.7775,1.7587,1.7747,1.7745,1.7744,1.7743,1.7743,1.7741,1.7771,1.7769,1.7793,1.7795,1.7804,1.7829,1.7818,1.7839,1.7857,1.7837,1.7869,1.787,1.7886,1.7888,1.7912,1.7886,1.7905,1.7909,1.7914,1.7921,1.7776,1.7915,1.7915,1.7914,1.7914,1.7914,0,1.7888,1.7884,1.7906,1.7918,1.7937,1.7902,1.7909,1.7927,1.7955,1.7959,1.7976,1.8006,1.8028,1.8015,1.8034,1.8056,1.8041,1.8062,1.8059,1.8059,1.7944,1.7931,1.8074,1.8074,1.8074,1.8074,1.8074,1.8074,1.7967,1.8015,1.8001,1.8049,1.8045,1.8076,1.8083,1.809,1.8092,1.8127,1.8145,1.8136,1.8133,1.8151,1.817,1.8165,1.8174,1.8201,1.8191,1.8083,1.8067,1.8052,1.8039,1.8203,1.8203,1.8303,1.8304,1.8305]},{"header":{"parameterUnit":"m.s-1","parameterCategory":1,"la1":30.2991,"la2":30.254,"lo1":-89.0895,"lo2":-89.0444,"dy":0.0017,"dx":0.0017,"nx":28,"ny":28,"refTime":"2025-07-12T09:00:00:Z","depth":0,"parameterNumber":3,"parameterNumberName":"V-component_of_WINDS"},"data":[0,0,0,0,0,0,0,0,0,0,0,0,0,0,0,0,0,0,0,0,0,0,0,0,0,0,0,0,0,0,0,0,0,0,0,0,0,0,0,0,0,0,0,0,0,0,0,0,0,0,0,0,0,0,0,0,0,0,0.2784,0.2785,0,0.2873,0.2874,0.2875,0.287,0.2869,0.2868,0.2866,0.296,0.2963,0.2967,0,0,0,0,0,0,0,0,0,0,0,0,0,0.2609,0.2612,0.2784,0.2785,0.2786,0.2873,0.2874,0.2876,0.287,0.2869,0.2867,0.2866,0.2959,0.2963,0.2967,0,0,0,0,0,0,0,0,0,0,0,0,0,0.269,0.2613,0.2783,0.2794,0.2796,0.2873,0.2874,0.2876,0.2871,0.2869,0.2867,0.2865,0.2957,0.2962,0.2968,0.3041,0,0,0.2985,0.2987,0,0,0,0,0,0,0,0,0.2686,0.2697,0.2791,0.2793,0.2795,0.2859,0.2847,0.2932,0.2871,0.2842,0.2866,0.2864,0.2928,0.2936,0.2957,0.3046,0.305,0.2985,0.2989,0.2991,0.2993,0,0,0,0,0,0,0,0.268,0.2693,0.2819,0.2792,0.2795,0.2794,0.2804,0.2863,0.2895,0.2845,0.2844,0.2855,0.2929,0.2951,0.2959,0.3051,0.2985,0.299,0.2994,0.2996,0.3204,0.3206,0,0,0,0,0,0,0.2672,0.2688,0.2816,0.2822,0.2734,0.2799,0.2809,0.284,0.2894,0.2901,0.2857,0.2855,0.2943,0.2952,0.2962,0.3052,0.2991,0.2996,0.3,0.3202,0.3205,0.3207,0,0,0,0,0,0,0.2668,0.2683,0.2813,0.2755,0.2771,0.2804,0.2839,0.2843,0.2866,0.2903,0.2909,0.2874,0.2942,0.2954,0.3022,0.3055,0.2999,0.3004,0.32,0.3203,0.3206,0.3231,0,0,0,0,0,0,0.2663,0.2682,0.271,0.2756,0.2774,0.2871,0.2841,0.2846,0.2875,0.2873,0.2921,0.2927,0.2941,0.3013,0.3027,0.3062,0.3008,0.3197,0.3201,0.3205,0.3228,0.3235,0.3241,0,0,0,0,0,0.2657,0.2714,0.2712,0.2727,0.281,0.2872,0.2883,0.2898,0.2878,0.2907,0.2931,0.2926,0.3049,0.302,0.3036,0.3072,0.3195,0.32,0.3205,0.3225,0.3234,0.3241,0,0,0,0,0,0,0.2673,0.272,0.2718,0.2792,0.2828,0.2871,0.2908,0.2907,0.295,0.2946,0.2962,0.2973,0.3041,0.3063,0.303,0.3146,0.3119,0.3127,0.3129,0.3138,0.3145,0.3138,0.3013,0,0,0,0,0,0.2685,0.2731,0.277,0.2831,0.2849,0.2876,0.2903,0.2911,0.2949,0.2965,0.2994,0.3031,0.3078,0.3109,0.3155,0.323,0.3241,0.3263,0.327,0.3275,0.3283,0.3324,0.3334,0.3223,0.3223,0.3223,0,0,0.271,0.2742,0.277,0.2835,0.2864,0.2912,0.2889,0.294,0.2976,0.2973,0.3038,0.306,0.3103,0.3175,0.3208,0.3196,0.3315,0.3282,0.3286,0.329,0.333,0.3341,0.335,0.3227,0.3226,0.3226,0,0,0.2781,0.2809,0.2863,0.2893,0.2936,0.2953,0.2966,0.301,0.3024,0.3089,0.3088,0.3131,0.3211,0.3242,0.3268,0.3349,0.3346,0.3363,0.34,0.344,0.3449,0.3457,0.3486,0.3496,0.337,0.337,0.337,0,0.2808,0.2879,0.2892,0.2943,0.2972,0.297,0.3025,0.3053,0.311,0.313,0.3115,0.3215,0.3244,0.3323,0.3343,0.3364,0.3379,0.3359,0.3446,0.3454,0.3462,0.349,0.3501,0.3372,0.3372,0.3372,0.3372,0,0.2909,0.2959,0.2997,0.3051,0.3084,0.3137,0.3158,0.3189,0.3194,0.3212,0.3278,0.3313,0.3365,0.3384,0.3389,0.3463,0.3454,0.3443,0.3416,0.3474,0.3501,0.3511,0.3375,0.3374,0.3374,0.3373,0,0,0.2994,0.3053,0.3067,0.3091,0.3139,0.3178,0.323,0.328,0.3307,0.3346,0.3391,0.3459,0.3448,0.3477,0.3486,0.3521,0.3583,0.3505,0.3506,0.3519,0.3667,0.3676,0.3688,0.3581,0.3583,0.3585,0.3663,0,0.307,0.3163,0.3176,0.3258,0.3304,0.3303,0.3348,0.3383,0.3401,0.3442,0.3463,0.351,0.3493,0.351,0.3545,0.3568,0.3613,0.3562,0.3623,0.3625,0.3613,0.3702,0.3712,0.3784,0.3674,0.3675,0.3677,0,0.3172,0.3213,0.33,0.334,0.336,0.3401,0.3447,0.3487,0.3526,0.3536,0.3569,0.3572,0.3627,0.3597,0.3673,0.3638,0.3663,0.3678,0.3681,0.3688,0.3655,0.3712,0.3808,0.3819,0.3693,0.3692,0.3691,0,0.3226,0.3302,0.3364,0.3384,0.3433,0.3462,0.3484,0.352,0.3549,0.359,0.3609,0.3656,0.3682,0.3718,0.3734,0.3711,0.3808,0.378,0.3819,0.3819,0.3841,0.3839,0.3943,0.3856,0.3856,0.3855,0.3855,0,0.331,0.3363,0.3388,0.3427,0.3486,0.35,0.3558,0.3579,0.3611,0.3653,0.3655,0.3694,0.3713,0.3755,0.3768,0.3829,0.384,0.3851,0.3854,0.3851,0.385,0.3869,0.3864,0.3858,0.3858,0.3857,0.3857,0,0.3381,0.3399,0.3467,0.3507,0.3518,0.356,0.3595,0.3632,0.3649,0.3702,0.3715,0.3743,0.3793,0.3812,0.3873,0.3882,0.3951,0.395,0.3938,0.3939,0.3977,0.3974,0.4098,0.4115,0.4015,0.4016,0.4017,0,0.3433,0.3474,0.3518,0.3546,0.3569,0.3614,0.3643,0.3658,0.3688,0.3735,0.3766,0.3816,0.3856,0.3936,0.3961,0.4008,0.4008,0.4048,0.4015,0.4011,0.4009,0.4007,0.4011,0.4055,0.4056,0.4056,0.4057,0,0.3526,0.3532,0.3575,0.362,0.3655,0.3691,0.3727,0.375,0.3769,0.3804,0.3854,0.3886,0.3948,0.3997,0.4044,0.4067,0.4066,0.4067,0.4078,0.4077,0.4069,0.4074,0.3956,0.4064,0.4064,0.4063,0.4063,0.4062,0.3589,0.3625,0.3662,0.3708,0.3736,0.3769,0.3806,0.3827,0.3869,0.392,0.3926,0.3981,0.4017,0.4081,0.4105,0.4148,0.4138,0.4154,0.4159,0.4163,0.4166,0.4061,0.4157,0.4157,0.4156,0.4156,0.4156,0,0.3682,0.3705,0.3747,0.3796,0.3833,0.3827,0.3866,0.3897,0.3945,0.3979,0.4018,0.4076,0.4124,0.4152,0.42,0.4229,0.4229,0.4241,0.4239,0.4244,0.4172,0.4158,0.4239,0.4239,0.4239,0.4239,0.4239,0.4239,0.3734,0.3795,0.3806,0.388,0.3903,0.3956,0.3978,0.4009,0.4036,0.41,0.4139,0.4157,0.4189,0.4239,0.4282,0.4289,0.4307,0.4319,0.4326,0.4258,0.425,0.4241,0.4228,0.4323,0.4323,0.4394,0.4395,0.4396]}]]